Volver al catálogo

COSMOS 2251 DEB

ActivoLEO
NORAD 35018·DEBRIS·🇷🇺 Russia

Lanzado Jun 16, 1993 desde Plesetsk Cosmodrome

Loading…

Próximos Pases (próximas 24 horas)

TLE

EnvejeciendoSource: Space-Track

Época: Sep 9, 2026, 15:09 UTC

1 35018U 93036AGF 26252.63157618  .00001073  00000-0  85903-3 0  9991
2 35018  73.9793  23.5727 0343630 238.0515 118.6766 13.67824863868898

Sigue COSMOS 2251 DEB en tiempo real con AllMySat

Download on the App Store